This is the latest recevied weather packets stored in our database for station/object OE3TEC-15. If no packets are shown the sender has not sent any weather packets the latest 10 day(s).
| Time | Temp. | Humidity | Pressure | Rain* | Wind** | Luminosity | Snow |
|---|---|---|---|---|---|---|---|
| 1777496311 | 5.56° C | 38% | 1029.7 hPa | 0 mm | - | 0 W/m² | - |
| 1777495704 | 6.11° C | 37% | 1029.8 hPa | 0 mm | - | 0 W/m² | - |
| 1777495097 | 6.67° C | 36% | 1029.5 hPa | 0 mm | - | 0 W/m² | - |
| 1777494490 | 6.67° C | 36% | 1029.4 hPa | 0 mm | - | 0 W/m² | - |
| 1777493883 | 6.67° C | 35% | 1029.2 hPa | 0 mm | - | 0 W/m² | - |
| 1777493275 | 7.22° C | 35% | 1028.9 hPa | 0 mm | - | 0 W/m² | - |
| 1777492667 | 7.22° C | 34% | 1029.1 hPa | 0 mm | - | 0 W/m² | - |
| 1777492062 | 7.78° C | 33% | 1028.8 hPa | 0 mm | - | 0 W/m² | - |
| 1777491454 | 7.78° C | 33% | 1028.8 hPa | 0 mm | - | 0 W/m² | - |
| 1777490846 | 7.78° C | 32% | 1028.6 hPa | 0 mm | - | 0 W/m² | - |
| 1777490239 | 7.78° C | 32% | 1028.3 hPa | 0 mm | - | 0 W/m² | - |
| 1777489631 | 8.33° C | 31% | 1028.3 hPa | 0 mm | - | 0 W/m² | - |
| 1777489024 | 8.33° C | 30% | 1027.9 hPa | 0 mm | - | 0 W/m² | - |
| 1777488424 | 8.89° C | 29% | 1027.6 hPa | 0 mm | - | 0 W/m² | - |
| 1777487819 | 8.89° C | 28% | 1027.5 hPa | 0 mm | - | 0 W/m² | - |
| 1777487212 | 8.89° C | 28% | 1027.3 hPa | 0 mm | - | 0 W/m² | - |
| 1777486606 | 9.44° C | 28% | 1027.1 hPa | 0 mm | - | 1 W/m² | - |
| 1777485998 | 9.44° C | 29% | 1026.8 hPa | 0 mm | - | 2 W/m² | - |
| 1777485391 | 10° C | 28% | 1026.7 hPa | 0 mm | - | 5 W/m² | - |
| 1777484784 | 10° C | 28% | 1026.6 hPa | 0 mm | - | 9 W/m² | - |
| 1777484177 | 10.56° C | 29% | 1026.1 hPa | 0 mm | - | 13 W/m² | - |
| 1777483569 | 10.56° C | 30% | 1025.9 hPa | 0 mm | - | 18 W/m² | - |
| 1777482962 | 11.11° C | 32% | 1025.7 hPa | 0 mm | - | 21 W/m² | - |
| 1777482354 | 11.11° C | 32% | 1025.6 hPa | 0 mm | - | 25 W/m² | - |
| 1777481747 | 11.67° C | 32% | 1025.3 hPa | 0 mm | - | 32 W/m² | - |
* Rain latest hour (hover to see other rain measurements)
** Current wind speed in m/s (hover to see current wind gust speed)